RYR9MA LOWW-LBSF

Flight info

Callsign RYR9MA
Flight time N/A
Altitude 35000
Route ARSIN DCT NALOX DCT BABIT/N0437F330 DCT RAVAK DCT NISVA
Aircraft A320/M-SDE3FGHIRWY/LB1

Departure

Time 2026-05-06 13:28
Airport Vienna International Airport (LOWW)

Arrival

Time N/A
Airport Sofia Airport (LBSF)
Time Latitude Longitude Altitude Speed Heading
2026-05-06 13:06 48.11649 16.56439 622 ft 0 kts 206°
2026-05-06 13:18 48.11662 16.56448 622 ft 4 kts 201°
2026-05-06 13:18 48.11687 16.56460 626 ft 4 kts 187°
2026-05-06 13:18 48.11714 16.56461 621 ft 4 kts 163°
2026-05-06 13:19 48.11733 16.56444 616 ft 1 kts 116°
2026-05-06 13:19 48.11733 16.56443 616 ft 0 kts 116°
2026-05-06 13:21 48.11724 16.56471 622 ft 8 kts 116°
2026-05-06 13:21 48.11697 16.56554 614 ft 10 kts 112°
2026-05-06 13:21 48.11666 16.56652 617 ft 11 kts 117°
2026-05-06 13:22 48.11629 16.56763 619 ft 13 kts 114°
2026-05-06 13:22 48.11589 16.56887 610 ft 14 kts 116°
2026-05-06 13:22 48.11544 16.57023 617 ft 15 kts 116°
2026-05-06 13:22 48.11496 16.57168 616 ft 16 kts 115°
2026-05-06 13:23 48.11449 16.57315 622 ft 16 kts 116°
2026-05-06 13:23 48.11446 16.57419 620 ft 10 kts 50°
2026-05-06 13:23 48.11502 16.57469 621 ft 9 kts 28°
2026-05-06 13:23 48.11544 16.57521 614 ft 7 kts 61°
2026-05-06 13:24 48.11536 16.57584 615 ft 7 kts 115°
2026-05-06 13:24 48.11519 16.57657 620 ft 8 kts 88°
2026-05-06 13:24 48.11550 16.57710 614 ft 6 kts 13°
2026-05-06 13:24 48.11589 16.57704 616 ft 6 kts 341°
2026-05-06 13:25 48.11629 16.57685 615 ft 6 kts 342°
2026-05-06 13:25 48.11677 16.57664 623 ft 8 kts 345°
2026-05-06 13:25 48.11731 16.57642 612 ft 8 kts 345°
2026-05-06 13:25 48.11786 16.57620 613 ft 8 kts 345°
2026-05-06 13:26 48.11840 16.57622 610 ft 7 kts 30°
2026-05-06 13:26 48.11860 16.57679 613 ft 6 kts 78°
2026-05-06 13:26 48.11858 16.57743 615 ft 8 kts 101°
2026-05-06 13:26 48.11837 16.57831 616 ft 10 kts 117°
2026-05-06 13:27 48.11806 16.57891 622 ft 8 kts 155°
2026-05-06 13:27 48.11784 16.57900 613 ft 0 kts 163°
2026-05-06 13:27 48.11782 16.57901 612 ft 0 kts 163°
2026-05-06 13:28 48.11621 16.57962 617 ft 59 kts 163°
2026-05-06 13:28 48.11019 16.58223 618 ft 119 kts 164°
2026-05-06 13:28 48.10092 16.58624 735 ft 151 kts 164°
2026-05-06 13:28 48.09077 16.59068 1350 ft 156 kts 165°
2026-05-06 13:29 48.07978 16.59591 1758 ft 177 kts 165°
2026-05-06 13:29 48.06752 16.60220 2259 ft 195 kts 163°
2026-05-06 13:29 48.05435 16.60950 2867 ft 208 kts 163°
2026-05-06 13:29 48.04059 16.61764 3551 ft 218 kts 161°
2026-05-06 13:30 48.02632 16.62661 4302 ft 227 kts 160°
2026-05-06 13:30 48.01144 16.63502 5126 ft 230 kts 169°
2026-05-06 13:30 47.99560 16.63759 6009 ft 229 kts 181°
2026-05-06 13:30 47.97968 16.63651 6878 ft 228 kts 187°
2026-05-06 13:31 47.96396 16.63425 7760 ft 226 kts 188°
2026-05-06 13:31 47.94830 16.63220 8653 ft 226 kts 187°
2026-05-06 13:31 47.93272 16.63058 9543 ft 224 kts 187°
2026-05-06 13:31 47.91701 16.62954 10188 ft 233 kts 186°
2026-05-06 13:32 47.90002 16.62859 10474 ft 256 kts 185°
2026-05-06 13:32 47.88135 16.62751 10742 ft 280 kts 185°
2026-05-06 13:32 47.86105 16.62627 10989 ft 304 kts 185°
2026-05-06 13:32 47.83929 16.62493 11362 ft 320 kts 185°
2026-05-06 13:33 47.81674 16.62355 12030 ft 326 kts 185°
2026-05-06 13:33 47.79393 16.62219 12765 ft 330 kts 185°
2026-05-06 13:33 47.77082 16.62196 13505 ft 336 kts 178°
2026-05-06 13:33 47.74761 16.62843 14152 ft 344 kts 166°
2026-05-06 13:34 47.72526 16.64221 14783 ft 351 kts 159°
2026-05-06 13:34 47.70310 16.65796 15400 ft 356 kts 159°
2026-05-06 13:34 47.68061 16.67388 16014 ft 360 kts 159°
2026-05-06 13:34 47.65790 16.68991 16629 ft 364 kts 159°
2026-05-06 13:35 47.63495 16.70605 17232 ft 367 kts 159°
2026-05-06 13:35 47.61171 16.72235 17841 ft 372 kts 159°
2026-05-06 13:35 47.58821 16.73878 18392 ft 375 kts 160°
2026-05-06 13:35 47.56357 16.75136 18898 ft 374 kts 171°
2026-05-06 13:36 47.53789 16.75664 19453 ft 373 kts 180°
2026-05-06 13:36 47.51191 16.75901 19990 ft 376 kts 180°
2026-05-06 13:36 47.48567 16.76145 20535 ft 379 kts 180°
2026-05-06 13:36 47.45925 16.76394 21079 ft 382 kts 180°
2026-05-06 13:37 47.43256 16.76643 21606 ft 386 kts 180°
2026-05-06 13:37 47.40568 16.76899 22122 ft 389 kts 180°
2026-05-06 13:37 47.37862 16.77160 22634 ft 392 kts 180°
2026-05-06 13:37 47.35126 16.77424 23131 ft 395 kts 180°
2026-05-06 13:38 47.32372 16.77691 23588 ft 398 kts 179°
2026-05-06 13:38 47.29600 16.77961 23984 ft 401 kts 179°
2026-05-06 13:38 47.26805 16.78230 24393 ft 403 kts 180°
2026-05-06 13:38 47.23997 16.78498 24790 ft 406 kts 180°
2026-05-06 13:39 47.21175 16.78762 25177 ft 408 kts 180°
2026-05-06 13:39 47.18334 16.79025 25555 ft 410 kts 180°
2026-05-06 13:39 47.15482 16.79288 25943 ft 412 kts 180°
2026-05-06 13:39 47.12615 16.79557 26311 ft 414 kts 180°
2026-05-06 13:40 47.09737 16.79832 26686 ft 416 kts 180°
2026-05-06 13:40 47.06840 16.80110 27035 ft 418 kts 180°
2026-05-06 13:40 47.03963 16.80385 27386 ft 420 kts 180°
2026-05-06 13:40 47.01003 16.80667 27745 ft 422 kts 180°
2026-05-06 13:41 46.98062 16.80948 28082 ft 425 kts 180°
2026-05-06 13:41 46.95103 16.81229 28411 ft 427 kts 181°
2026-05-06 13:41 46.92138 16.81792 28729 ft 434 kts 171°
2026-05-06 13:41 46.89253 16.83225 29023 ft 444 kts 159°
2026-05-06 13:42 46.86588 16.85559 29306 ft 454 kts 147°
2026-05-06 13:42 46.84256 16.88770 29575 ft 464 kts 134°
2026-05-06 13:42 46.82397 16.92650 29845 ft 472 kts 126°
2026-05-06 13:42 46.80650 16.96748 30075 ft 474 kts 126°
2026-05-06 13:43 46.78889 17.00852 30293 ft 476 kts 126°
2026-05-06 13:43 46.77128 17.04929 30507 ft 478 kts 126°
2026-05-06 13:43 46.75346 17.09041 30720 ft 480 kts 126°
2026-05-06 13:43 46.73555 17.13160 30965 ft 481 kts 126°
2026-05-06 13:44 46.71771 17.17265 31267 ft 480 kts 126°
2026-05-06 13:44 46.70012 17.21322 31561 ft 479 kts 126°
2026-05-06 13:44 46.68230 17.25429 31841 ft 479 kts 127°
2026-05-06 13:44 46.66427 17.29580 32135 ft 479 kts 127°